BREEZE-M DEB, 44596

Orbit data source: Space-Track

BREEZE-M DEB, 44596 is space debris in HEO originally from a launch on Fri, 20 May 2011 UTC launched from the Tyuratam Missile And Space Complex (TTMTR). Debris objects in space refer to the collection of defunct objects orbiting the Earth. Examples of debris include non-operational satellites, rocket bodies, and fragments generated from explosions, collisions, or faulty payload assembly.

Loading next visibility...
Identifier
44596, 2011-021D
Orbit
HEO
Country
Flag of CISCIS
Related business
Manufacturer
Unknown
Mission
Spacecraft
Bus & Motor
Unknown
Mass
Unknown
Launch date (UTC)
2011-05-20 (15 years ago)
Launch vehicle
Unknown
Launch site
Tyuratam Missile And Space Complex (TTMTR)
Object type
Payload
Rocket body
Debris
Shape & HBR
Unknown shape, 1.1 m
Radar Cross Section
Medium (>0.1 m² and <1 m²)

Expand to show TLE details & history
Last TLE update: 2 days ago

TLE from 2 days ago
0 BREEZE-M DEB
1 44596U 11021D   26171.37768544 -.00000100  00000-0  00000+0 0  9995
2 44596  15.1940 304.0216 4887671  43.6497 352.1380  1.93140095 88820
Epoch: 2026-06-20T09:03Z
TLE epoch observation values (Epoch: 2026-06-20T09:03:52.022Z)
Latitude
4.69935°
Longitude
-82.95915°
Altitude
8,026.407 km
Speed
6.38 km/s
True Right ascension
21h 26m 24s
True Declination
4° 41' 08"
Sunlit
Object was in daylight at epoch
Visualization orbit readout
Latitude
Unknown
Longitude
Unknown
Altitude
Unknown
Speed
Unknown
Apparent Right ascension
Unknown
Apparent Declination
Unknown
Sunlit
N/A
Visualization observer readout
Local Sidereal Time
21:23:26
Azimuth
Unknown
Elevation
Unknown
Doppler factor
Unknown
Orbital elements
Apogee altitude
34,174.155 km
Perigee altitude
7,547.255 km
Semi-major axis
27,238.842 km
Eccentricity
0.48877
Inclination
15.194°
RAAN
304.0216°
Arg. of periapsis
43.6497°
True anomaly
334.33169°
Mean anomaly
352.138°
Eccentric anomaly
344.79163°
Mean motion
0.48279 °/min
Orbital period
745.66 mins
BSTAR
0
Loading maneuver chart data...
Computing Atmospheric mass density...
Loading historical data...
Loading historical data...
Loading historical data...
Loading historical data...
Loading historical data...
Loading historical data...
Loading historical data...
Other satellites on launch #21 in the year 2011 (2011-05-20 UTC)

Documentation

Showing up to 5 results
|